Regional Weather Roundup
Issued by NWS Wakefield, VA

Home | Current Version | Previous Version | Graphics & Text | Print | Product List | Glossary On
Versions: 1 2 3 4 5 6 7 8 9 10 11 12 13 14 15 16 17 18 19 20 21 22 23 24 25 26 27 28 29 30 31 32 33 34 35 36 37 38 39 40 41 42 43 44 45 46 47 48 49 50
000
ASUS41 KAKQ 181115
RWRAKQ

REGIONAL WEATHER ROUNDUP
NATIONAL WEATHER SERVICE WAKEFIELD VA
600 AM EST THU JAN 18 2018

Note: "fair" indicates few or no clouds below 12,000 feet with no
significant weather and/or obstructions to visibility. * = Denotes
station may not report precipitation (e.g., rain,snow,etc.),
thunder or fog.

VAZ042-051-052>054-056-181200-
NORTHERN VIRGINIA

CITY           SKY/WX    TMP DP  RH WIND       PRES   REMARKS
WASH NATIONAL  FAIR      20   6  55 NW9       30.20R
DULLES         FAIR      19   5  54 NW15      30.18R WCI   5
FORT BELVOIR   FAIR      20   4  48 NW12      30.19R WCI   8
QUANTICO       NOT AVBL
FREDERICKSBRG* FAIR      14   9  81 CALM      30.20R
STAFFORD*      FAIR      12   8  84 CALM      30.23S
WARRENTON      FAIR      10   4  76 CALM      30.17R
CULPEPER*      FAIR      11   7  82 CALM      30.19R
MANASSAS*      FAIR      13   3  64 CALM      30.19R
LEESBURG*      FAIR      21   9  58 NW13G20   30.18S WCI   9
WINCHESTER     FAIR      19   3  49 W9        30.17S
FRONT ROYAL*   FAIR      18   3  53 MISG      30.16S
LURAY*         FAIR      14   9  79 S3        30.17S
$$

VAZ048-049-060>072-079>083-181200-
CENTRAL AND SOUTH CENTRAL VIRGINIA

CITY           SKY/WX    TMP DP  RH WIND       PRES   REMARKS
RICHMOND       FAIR      16   7  67 CALM      30.20R
CHESTERFIELD*  NOT AVBL
PETERSBURG*    FAIR      10   7  85 CALM      30.22R
HANOVER        FAIR      13   5  70 W6        30.20S
TAPPAHANNOCK*  FAIR      16  10  77 CALM      30.20R
QUINTON*       FAIR      16   7  67 CALM      30.21R
CHARLOTTSVILLE FAIR      20   2  45 W3        30.16R
GORDONSVILLE*  FAIR       8   6  90 MISG      30.17R
ORANGE*        FAIR       9   5  85 CALM      30.17R
LOUISA*        FAIR       6   2  85 S5        30.22R
BUMPASS*       FAIR       8   4  83 CALM      30.18S
FARMVILLE*     FAIR      13  10  88 SW3       30.20R
CREWE*         FAIR       6   6 100 CALM      30.21R
FORT PICKETT*  FAIR      13  10  90 W6        30.20S
CHASE CITY*    FAIR      11   9  89 CALM      30.22S
CLARKSVILLE*   FAIR      14   9  79 CALM      30.23S
SOUTH HILL*    FAIR      15  10  82 NW5       30.27S
LAWRENCEVILLE* FAIR      15  11  85 MISG      30.21R
EMPORIA*       FAIR      18  12  79 W3        30.24S
$$

VAZ088>098-181200-
SOUTHEAST VIRGINIA

CITY           SKY/WX    TMP DP  RH WIND       PRES   REMARKS
NORFOLK        CLOUDY    24  12  60 NW7G17    30.15S
VIRGINIA BEACH CLOUDY    24  11  57 N20G29    30.13S WCI  10
NORFOLK NAVAL  CLOUDY    23  11  60 NW17      30.17F WCI   9
WEST POINT*    FAIR      18   8  65 NW5       30.22S
SALUDA*        FAIR      21  10  63 NW9       30.18S
NEWPORT NEWS   CLOUDY    21   9  59 NW10G21   30.17F WCI  10
LANGLEY AFB    CLOUDY    21  10  60 NW10      30.15F WCI  10
FORT EUSTIS    CLOUDY    22   8  54 NW13      30.15F WCI  10
WILLIAMSBURG*  MOCLDY    21  12  68 NW12G17   30.19F WCI   9
HR EXEC AP*    PTSUNNY   21  12  68 VRB5      30.17F
FRANKLIN*      CLOUDY    21  11  65 NW9       30.21S
US460-WAKEFLD  NOT AVBL
$$

VAZ020-022-025-037-045-181200-
WEST CENTRAL AND SOUTHWEST VIRGINIA

CITY           SKY/WX    TMP DP  RH WIND       PRES   REMARKS
STAUNTON*      FAIR       5   1  85 S3        30.19R
WAYNESBORO*    FAIR      14   2  59 W7        30.14S
HOT SPRINGS VA FAIR       6  -2  69 NW22G30   30.02S WCI -15
LYNCHBURG      FAIR      11   3  70 NW5       30.19R
DANVILLE       FAIR      11   4  73 W6        30.24S
SOUTH BOSTON*  FAIR      12   5  73 CALM      30.24S
MARTINSVILLE   FAIR      11   2  67 NW3       30.26R
ROANOKE        FAIR      15   3  59 NW6       30.26R
BLACKSBURG     FAIR      11   4  74 W7        30.23S
DUBLIN*        FAIR      12   4  70 W9        30.24S
MARION*        CLOUDY     7   2  81 W20G26    30.27R WCI -13
HILLSVILLE*    FAIR       7   1  75 NW14G22   30.16R WCI -10
RICHLANDS*     FLURRIES   6   3  88 W3        30.28S
WISE*          FAIR       5   1  85 SW3       30.29S
ABINGDON*      MOCLDY     8   5  86 W6        30.35R
$$

MDZ021>025-VAZ099-100-181200-
SOUTHERN MARYLAND AND THE DELMARVA PENINSULA

CITY           SKY/WX    TMP DP  RH WIND       PRES   REMARKS
PATUXENT RIVER NOT AVBL
BAY BRIDGE APT FAIR      19   9  63 W6        30.18R
LEONARDTOWN    FAIR      19   9  63 NW3       30.20R
DOVER          FAIR      18  11  74 NW10      30.15R WCI   6
GEORGETOWN     FAIR      20   8  60 N6        30.13F
EASTON         CLEAR     19   9  63 N7        30.20R
CAMBRIDGE      NOT AVBL
SALISBURY      FAIR      20   9  62 NW14G24   30.12F WCI   7
OCEAN CITY     FAIR      20  10  65 NW16G30   30.07F WCI   6
WALLOPS ISLAND FAIR      22  10  60 NW15G28   30.08F WCI   9
ACCOMACK*      MOCLDY    23  13  65 NW14G25   30.10F WCI  11
$$

NCZ012>017-030>032-181200-
NORTH CENTRAL AND EASTERN NORTH CAROLINA

CITY           SKY/WX    TMP DP  RH WIND       PRES   REMARKS
ROANOKE RAPIDS FAIR      21  16  79 CALM      30.22F
RALEIGH        FAIR      13   8  81 CALM      30.25S
ELIZABETH CITY CLOUDY    24  15  68 NW18      30.17R WCI  10
AHOSKIE*       MOCLDY    20  12  71 NW3       30.22S
EDENTON*       MOCLDY    25  15  66 N13G20    30.19R WCI  13
CURRITUCK*     CLOUDY    23  15  70 NW8       30.16R
KILL DEVIL HLS   N/A    N/A N/A N/A NW6G16    30.11S
MANTEO         CLOUDY    23  21  91 N10G17    30.14R WCI  13
CAPE HATTERAS  LGT SNOW  27  25  92 NW13G29   30.09S FOG     WCI  16
TARBORO*       NOT AVBL
GOLDSBORO      CLOUDY    22  11  64 NW8G20    30.23R
WASHINGTON     CLOUDY    24  13  63 NW8       30.21R
GREENVILLE     FAIR      25  16  68 NW6       30.24R
NEW BERN       CLOUDY    24  13  62 NW13G22   30.21R WCI  12
WILMINGTON     FAIR      25  20  81 NW16      30.24R WCI  12
$$

VAZ048-181200-
ELSEWHERE

CITY           SKY/WX    TMP DP  RH WIND       PRES   REMARKS
HARRISBURG PA  FAIR      16   5  62 NW15      30.11S WCI   1
BALTIMORE      FAIR      14   7  73 SW3       30.16R
ANNAPOLIS      FAIR      20   8  60 W3        30.18R
ANDREWS AFB    FAIR      18   5  57 NW10G20   30.16R WCI   6
PHILADELPHIA   FAIR      19   6  57 W5        30.14R
HENDERSON NC   FAIR      12   4  72 NW3       30.22S
GREENSBORO     FAIR       6   2  83 NW5       30.22S
ROCKY MOUNT    FAIR      19  13  77 NW7       30.24R
$$

VAZ100-181200-
MARINE

STATION/POSITION TIME  TEMP    WIND        PRES    WAVE   SWELL
                       AIR SEA DIR/SP/G            HT/PER HT/PER
                 (UTC) (F)     (DEG/KT/KT) (MB)    (FT/S) (FT/S)
BRANDYWINE LGT   1042   21     330/ 14/ 19 1020.7F
CAPE MAY NJ      1048   21 31  350/ 11/ 19 1019.9F
LEWES DE         1048      32  330/ 19/ 24 1020.1F
15NM E FENWICK I 1050   26 41  320/ 35/ 41 1015.2F   7/ 6   2/10
OCEAN-CITY-INLET 1048   22 34  350/ 21/ 25 1018.4F
WACHAPREAGUE VA  1048   22 32  310/  7/ 19 1018.9F
THOMAS POINT MD  1100   20 31  300/  9/ 10   N/A
GOOSES REEF MD   1100   21 33  360/ 12/ 16 1022.0    1/ 3
COVE POINT MD    1048   20     350/ 16/ 20 1022.9R
SOLOMONS ISLAND  1048   20 33  360/  6/  9 1022.1R
BISHOPS HEAD MD  1048   21 30  330/ 11/ 14 1021.7F
PINEY POINT MD   1048          350/ 11/ 15   N/A
POTOMAC MD       1100   21 33  100/ 14/ 19 1021.3    2/ 3
CAMBRIDGE MD     1048   20 31              1022.3S
LEWISETTA VA     1048   21 31  350/ 11/ 16 1022.5R
RAPPAHANNOCK LGT 1048          320/ 28/ 31 1020.6F
STINGRAY PT      1100   22 33  350/ 17/ 21 1023.3    2/ 3
YORK RVR RNG VA  1048   22     330/ 19/ 22 1021.9F
YORKTOWN VA      1048   22 34  320/ 16/ 20 1021.7F
DOMINION TERM VA 1048   24     340/  8/ 14 1021.5F
KIPTOPEKE VA     1048      34  350/ 24/ 29   N/A
CAPE HENRY VA    1048   24     320/ 22/ 27   N/A
WILLOUBY STN VA  1042          330/ 15/ 17 1021.1F
S CRANEY ISL VA  1048   23     330/ 11/ 18 1021.1F
CAPE HENRY BUOY  1100      39                N/A     7/ 6   2/11
1ST LANDING BUOY 1100   24 35  350/ 21/ 27 1020.4    4/ 4
CAPE CHARLES BUO 1051      37                N/A     6/ 5   2/11
64NM E OF VA BCH 1050   32 56  330/ 29/ 35 1017.0R  11/ 8   5/11
DUCK PIER NC     1048   24 38  330/ 21/ 25 1019.2R
44100 DUCK FRF   1045      43                N/A    10/ 7   2/11
44056 DUCK FRF   1100      40                N/A     8/ 8   2/11
OREGON INLET NC  1042   25 38  320/ 18/ 24 1019.1S
HATTERAS NC      1048      40  330/ 27/ 32 1018.6S
DIAMOND SHLS NC  1100   33 68  330/ 29/ 37 1018.2
CAPE LOOKOUT NC  1100          330/ 23/ 26 1021.7R
$$



USA.gov is the U.S. government's official web portal to all federal, state and local government web resources and services.